Regional Weather Roundup
Issued by NWS Goodland, KS

Home | Current Version | Previous Version | Graphics & Text | Print | Product List | Glossary On
Versions: 1 2 3 4 5 6 7 8 9 10 11 12 13 14 15 16 17 18 19 20 21 22 23 24 25 26 27 28 29 30 31 32 33 34 35 36 37 38 39 40 41 42 43 44 45 46 47 48 49 50
000
ASUS43 KGLD 162059
RWRGLD

GOODLAND FORECAST AREA HOURLY WEATHER ROUNDUP
NATIONAL WEATHER SERVICE GOODLAND KS
300 PM MDT WED APR 16 2014

...OFFICIAL OBSERVATIONS...

CITY           SKY/WX    TMP DP  RH WIND       PRES   REMARKS
GOODLAND KS    PTSUNNY   57  27  31 N36G44    29.87F
HILL CITY KS   SUNNY     64  32  30 N24G40    29.86R
IMPERIAL NEB   CLOUDY    53  33  46 N21G28    29.94R
MCCOOK NEB     MOSUNNY   57  34  41 N23       29.91R
AKRON CO       SUNNY     52  23  32 N25G38    29.93S
BURLINGTON CO  PTSUNNY   57  24  28 N26G41    29.90R
LIMON CO       PTSUNNY   49  21  33 N18G26    29.94R
$$

...UNOFFICIAL OBSERVATIONS...

CITY           SKY/WX    TMP DP  RH WIND       PRES   REMARKS
COLBY KS       MOSUNNY   61  36  39 N24G36    29.88R
GOVE KS          N/A     63  32  31 NW14G24     N/A
LENORA KS        N/A     58  32  37 NW26G33     N/A
LEOTI KS         N/A     62  32  32 NW12        N/A
NORTON KS      SUNNY     55  34  44 NW30G38   29.87R
SHARON SPRINGS   N/A     60  29  30 N18G30      N/A
WAKEENEY KS      N/A     66  31  26 MISG        N/A
TRENTON NEB      N/A     54  32  43 N18         N/A
$$



USA.gov is the U.S. government's official web portal to all federal, state and local government web resources and services.